Simultaneous Nadir Overpasses (SNOs) Predictions

Prediction of SNOs between LANDSAT-8 and NOAA-19 Satellite Orbit:

Table of predicted SNOs for the next 14.0 days since TLE Epoch: 8/1/2020
Index Date (LANDSAT-8) Time (LANDSAT-8) Lat,Lon (LANDSAT-8) SZA (LANDSAT-8 ) Date (NOAA-19) Time (NOAA-19) Lat,Lon (NOAA-19) SZA (NOAA-19 ) Distance(km) Time Diff (sec)
1 08/01/2020 21:51:08 -79.84, 58.62 116.93 08/01/2020 21:51:16 -79.84, 58.68 116.92 1.32 8
2 08/04/2020 03:24:52 79.84, 155.21 63.67 08/04/2020 03:24:30 79.86, 155.18 63.68 2.80 22
3 08/04/2020 04:14:19 -79.84, -37.14 116.33 08/04/2020 04:15:32 -79.83, -37.21 116.31 1.65 73
4 08/06/2020 08:58:36 -79.88,-107.93 115.67 08/06/2020 08:57:49 -79.87,-108.09 115.71 3.31 47
5 08/06/2020 09:48:03 79.84, 59.43 64.29 08/06/2020 09:48:46 79.85, 59.40 64.31 0.93 43
6 08/08/2020 14:32:18 79.94, -10.82 65.07 08/08/2020 14:31:10 80.04, -13.53 64.93 53.41 68
7 08/08/2020 15:21:48 -79.84, 156.01 115.08 08/08/2020 15:22:05 -79.86, 155.98 115.05 2.31 17
8 08/10/2020 20:55:31 79.87,-107.20 65.63 08/10/2020 20:55:19 79.86,-107.17 65.62 1.66 12
9 08/13/2020 02:29:16 -79.88, -10.59 113.69 08/13/2020 02:28:37 -79.88, -10.63 113.71 0.77 39
